Location: Unspecified
(0.0000°N, 0.0000°E)
Time: 17:56:45
(UTC+00:00)

LightSail 2 - Pass Details

Date: 20 January 2020
Orbit: 704 x 720 km, 24.0° (Epoch: 22 January)

Event Time Altitude Azimuth Distance (km) Brightness Sun altitude
Exits shadow 04:27:21 16° 212° (SSW) 1,801 7.1 -24.2°
Maximum altitude 04:28:09 16° 201° (SSW) 1,774 7.2 -24.0°
Drops below altitude 10° 04:31:20 10° 163° (SSE) 2,169 8.1 -23.2°
Sets 04:34:37 0° 142° (SE) 3,085 9.4 -22.5°
